Weather History for Superior, WI

Change the Weather History Date:

Friday, May 10, 2013

  Actual Average Record
Temperature  
Mean Temperature 38 °F -  
Max Temperature 42 °F 53 °F 87 °F (2007)
Min Temperature 33 °F 37 °F 19 °F (1966)
Degree Days  
Heating Degree Days 28    
Moisture  
Dew Point 30 °F    
Average Humidity 77    
Maximum Humidity 91    
Minimum Humidity 64    
Precipitation  
Precipitation 0.00 in - - ()
Sea Level Pressure  
Sea Level Pressure 30.10 in    
Wind  
Wind Speed 8 mph (ENE)    
Max Wind Speed 16 mph    
Max Gust Speed 25 mph    
Visibility 10 miles    
Events Rain    
Averages and records for this station are not official NWS values.
T = Trace of Precipitation, MM = Missing Value Source: NWS Daily Summary

Daily Weather History Graph

Daily Weather History Graph

Search for Another Location

Airport:

Trip Planner

Search our weather history database for the weather conditions in past years. The results will help you decide how hot, cold, wet, or windy it might be!

Date:

Astronomy

May. 10, 2013 Rise Set
Actual Time 5:40 AM CDT 8:30 PM CDT
Civil Twilight 5:05 AM CDT 9:05 PM CDT
Nautical Twilight 4:20 AM CDT 9:50 PM CDT
Astronomical Twilight 3:27 AM CDT 10:43 PM CDT
Moon 6:04 AM CDT (5/10) 9:21 PM CDT (5/10)
Length of Visible Light 16h 00m
Length of Day
14h 50m
New Moon, 0% of the Moon is Illuminated
May 10
New Moon
May 17
First Quarter
May 24
Full
May 31
Last Quarter
Jun 8
New

Hourly Weather History & Observations

Time (CDT) Temp. Windchill Dew Point Humidity Pressure Visibility Wind Dir Wind Speed Gust Speed Precip Events Conditions
12:15 AM 35.1 °F 30.1 °F 29.5 °F 80% 30.22 in 10.0 mi NE 5.8 mph - N/A   Clear
12:55 AM 35.2 °F 28.8 °F 29.3 °F 79% 30.22 in 10.0 mi NE 8.1 mph - N/A   Clear
1:15 AM 34.7 °F 29.6 °F 29.3 °F 81% 30.22 in 10.0 mi ENE 5.8 mph - N/A   Clear
1:35 AM 34.5 °F 29.4 °F 29.5 °F 82% 30.21 in 10.0 mi NE 5.8 mph - N/A   Clear
1:55 AM 34.0 °F 29.8 °F 29.1 °F 82% 30.21 in 10.0 mi ENE 4.6 mph - N/A   Clear
2:15 AM 34.2 °F 30.0 °F 29.1 °F 82% 30.21 in 10.0 mi NE 4.6 mph - N/A   Clear
2:35 AM 33.8 °F 29.6 °F 28.9 °F 82% 30.21 in 10.0 mi ENE 4.6 mph - N/A   Clear
2:55 AM 33.8 °F 29.6 °F 28.4 °F 81% 30.20 in 10.0 mi NE 4.6 mph - N/A   Clear
3:15 AM 34.3 °F 29.2 °F 28.6 °F 79% 30.20 in 10.0 mi ENE 5.8 mph - N/A   Clear
3:35 AM 34.5 °F 28.6 °F 28.8 °F 79% 30.20 in 10.0 mi NE 6.9 mph - N/A   Clear
3:55 AM 34.5 °F 29.4 °F 28.8 °F 79% 30.19 in 10.0 mi ENE 5.8 mph - N/A   Clear
4:15 AM 35.4 °F 28.4 °F 28.9 °F 77% 30.19 in 10.0 mi ENE 9.2 mph - N/A   Clear
4:35 AM 35.8 °F 28.8 °F 29.3 °F 77% 30.19 in 10.0 mi ENE 9.2 mph - N/A   Clear
4:55 AM 35.6 °F 28.6 °F 29.7 °F 79% 30.19 in 10.0 mi ENE 9.2 mph - N/A   Clear
5:15 AM 35.4 °F 26.8 °F 29.3 °F 78% 30.19 in 10.0 mi ENE 12.7 mph 18.4 mph N/A   Clear
5:35 AM 35.2 °F 27.6 °F 29.3 °F 79% 30.19 in 10.0 mi ENE 10.4 mph 18.4 mph N/A   Clear
5:55 AM 35.2 °F 27.1 °F 29.8 °F 81% 30.19 in 10.0 mi ENE 11.5 mph 16.1 mph N/A   Clear
6:15 AM 35.6 °F 28.0 °F 30.2 °F 81% 30.19 in 10.0 mi ENE 10.4 mph 18.4 mph N/A   Clear
6:35 AM 35.6 °F 27.5 °F 30.6 °F 82% 30.19 in 10.0 mi ENE 11.5 mph 16.1 mph N/A   Clear
7:15 AM 36.7 °F 28.4 °F 30.9 °F 80% 30.19 in 10.0 mi ENE 12.7 mph 19.6 mph N/A   Clear
7:35 AM 37.0 °F 28.9 °F 30.9 °F 79% 30.19 in 10.0 mi ENE 12.7 mph 19.6 mph N/A   Clear
8:15 AM 37.4 °F 28.5 °F 30.7 °F 77% 30.19 in 10.0 mi ENE 15.0 mph 21.9 mph N/A   Clear
8:35 AM 37.9 °F 30.5 °F 30.7 °F 75% 30.19 in 10.0 mi ENE 11.5 mph 21.9 mph N/A   Clear
8:55 AM 38.7 °F 30.9 °F 30.9 °F 74% 30.19 in 10.0 mi ENE 12.7 mph 19.6 mph N/A   Clear
9:15 AM 38.3 °F 30.1 °F 30.7 °F 74% 30.19 in 10.0 mi ENE 13.8 mph 21.9 mph N/A   Clear
9:35 AM 39.2 °F 30.8 °F 30.4 °F 71% 30.19 in 10.0 mi ENE 15.0 mph 24.2 mph N/A   Clear
9:55 AM 38.5 °F 29.6 °F 30.0 °F 72% 30.18 in 10.0 mi ENE 16.1 mph 23.0 mph N/A   Clear
10:15 AM 38.8 °F 31.2 °F 29.8 °F 70% 30.17 in 10.0 mi ENE 12.7 mph 23.0 mph N/A   Clear
10:35 AM 39.9 °F 31.8 °F 30.7 °F 70% 30.18 in 10.0 mi NE 15.0 mph 20.7 mph N/A   Scattered Clouds
10:55 AM 39.4 °F 31.1 °F 30.4 °F 70% 30.17 in 10.0 mi ENE 15.0 mph 21.9 mph N/A   Scattered Clouds
11:15 AM 38.8 °F 30.0 °F 30.4 °F 72% 30.18 in 10.0 mi East 16.1 mph 25.3 mph N/A   Scattered Clouds
11:35 AM 39.6 °F 31.3 °F 30.4 °F 70% 30.17 in 10.0 mi ENE 15.0 mph 20.7 mph N/A   Scattered Clouds
12:15 PM 39.6 °F 31.7 °F 30.0 °F 69% 30.16 in 10.0 mi East 13.8 mph 20.7 mph N/A   Clear
12:35 PM 39.9 °F 32.1 °F 30.2 °F 68% 30.13 in 10.0 mi ENE 13.8 mph - N/A   Clear
12:55 PM 40.1 °F 32.7 °F 30.0 °F 67% 30.13 in 10.0 mi ENE 12.7 mph 18.4 mph N/A   Clear
1:15 PM 40.3 °F 34.4 °F 30.2 °F 67% 30.13 in 10.0 mi ENE 9.2 mph - N/A   Clear
1:35 PM 41.0 °F 33.9 °F 30.9 °F 67% 30.11 in 10.0 mi ENE 12.7 mph 17.3 mph N/A   Clear
1:55 PM 41.0 °F 34.3 °F 30.2 °F 65% 30.10 in 10.0 mi East 11.5 mph - N/A   Clear
2:15 PM 41.0 °F 35.2 °F 30.4 °F 66% 30.09 in 10.0 mi East 9.2 mph - N/A   Clear
2:35 PM 42.1 °F 36.1 °F 31.6 °F 67% 30.08 in 10.0 mi East 10.4 mph - N/A   Clear
2:55 PM 41.9 °F 35.9 °F 30.4 °F 64% 30.08 in 10.0 mi East 10.4 mph - N/A   Clear
3:15 PM 42.3 °F 37.9 °F 31.5 °F 66% 30.07 in 10.0 mi ENE 6.9 mph - N/A   Clear
3:35 PM 41.2 °F 35.5 °F 31.1 °F 67% 30.06 in 10.0 mi NE 9.2 mph - N/A   Clear
3:55 PM 41.5 °F 35.4 °F 30.9 °F 66% 30.05 in 10.0 mi NE 10.4 mph - N/A   Clear
4:15 PM 41.7 °F 36.1 °F 30.6 °F 65% 30.04 in 10.0 mi NE 9.2 mph - N/A   Clear
4:35 PM 40.5 °F 34.6 °F 29.1 °F 64% 30.02 in 10.0 mi East 9.2 mph - N/A   Clear
5:15 PM 38.3 °F 32.5 °F 29.3 °F 70% 30.01 in 10.0 mi NE 8.1 mph - N/A   Clear
5:35 PM 37.8 °F 31.3 °F 29.8 °F 73% 30.01 in 10.0 mi NE 9.2 mph - N/A   Clear
5:55 PM 36.7 °F 29.9 °F 30.0 °F 77% 30.00 in 10.0 mi ENE 9.2 mph - N/A   Clear
6:15 PM 36.5 °F 29.7 °F 30.7 °F 80% 29.99 in 10.0 mi NE 9.2 mph - N/A   Clear
6:35 PM 35.6 °F 28.6 °F 30.7 °F 82% 29.99 in 10.0 mi ENE 9.2 mph - N/A   Clear
6:55 PM 35.6 °F 28.6 °F 30.4 °F 81% 29.99 in 10.0 mi ENE 9.2 mph - N/A   Mostly Cloudy
7:15 PM 35.8 °F 30.1 °F 30.9 °F 82% 29.97 in 10.0 mi ENE 6.9 mph - N/A   Scattered Clouds
7:35 PM 35.2 °F 29.5 °F 31.1 °F 85% 29.94 in 10.0 mi East 6.9 mph - N/A   Mostly Cloudy
7:55 PM 35.2 °F 29.5 °F 30.9 °F 84% 29.95 in 10.0 mi NE 6.9 mph - N/A   Mostly Cloudy
8:15 PM 34.9 °F 29.9 °F 31.1 °F 86% 29.94 in 10.0 mi NE 5.8 mph - N/A   Mostly Cloudy
8:35 PM 34.7 °F 28.8 °F 31.1 °F 87% 29.94 in 10.0 mi NNE 6.9 mph - N/A   Overcast
8:55 PM 34.7 °F 29.6 °F 30.9 °F 86% 29.94 in 10.0 mi NE 5.8 mph - N/A Rain Light Rain
9:15 PM 34.2 °F - 31.1 °F 89% 29.93 in 10.0 mi Calm Calm - N/A   Overcast
9:35 PM 33.8 °F 30.8 °F 31.1 °F 90% 29.93 in 10.0 mi NE 3.5 mph - N/A   Mostly Cloudy
9:55 PM 33.8 °F 30.8 °F 31.5 °F 91% 29.92 in 10.0 mi ENE 3.5 mph - N/A   Mostly Cloudy
10:15 PM 33.8 °F 30.8 °F 31.5 °F 91% 29.92 in 10.0 mi ENE 3.5 mph - N/A   Overcast
10:35 PM 33.8 °F 30.8 °F 31.3 °F 90% 29.91 in 10.0 mi NE 3.5 mph - N/A   Overcast
10:55 PM 34.0 °F 29.8 °F 31.5 °F 90% 29.91 in 10.0 mi NNE 4.6 mph - N/A   Overcast
11:15 PM 34.0 °F 31.0 °F 31.1 °F 89% 29.91 in 10.0 mi NNE 3.5 mph - N/A   Overcast
11:35 PM 33.8 °F - 30.7 °F 89% 29.91 in 10.0 mi Calm Calm - N/A   Overcast
11:55 PM 34.2 °F 30.0 °F 29.7 °F 84% 29.93 in 10.0 mi North 4.6 mph - N/A   Overcast